Skip Page Navigation
NASA JPL Caltech
NASA Logo - Jet Propulsion Laboratory + View the NASA Portal
+ Center for Near-Earth Object Studies
JPL Home Earth Solar System Stars & Galaxies Technology
JPL Solar System Dynamics
BODIES ORBITS EPHEMERIDES TOOLS PHYSICAL DATA DISCOVERY FAQ SITE MAP
IMPORTANT: The SSD Announcement email list is now available. Major changes are coming in the near future, including possible hostname and/or URL changes. To be notified of such changes, subscribe to this email list.

Please visit this page for more details.


JPL Small-Body Database Browser
Search: [ help ]  
65322 (2002 KS)
Classification: Outer Main-belt Asteroid          SPK-ID: 2065322
Ephemeris | Orbit Diagram | Orbital Elements | Mission Design | Physical Parameters | Discovery Circumstances | Close-Approach Data ]

[ show orbit diagram ]
Orbital Elements at Epoch 2458600.5 (2019-Apr-27.0) TDB
Reference: JPL 15 (heliocentric ecliptic J2000)
 Element Value Uncertainty (1-sigma)   Units 
e .06599044856505937 5.219e-08  
a 3.213686662876676 3.0448e-08 au
q 3.001614038445896 1.7476e-07 au
i 6.157763781470138 5.1091e-06 deg
node 291.8095985710817 5.1428e-05 deg
peri 51.09801511323152 6.4321e-05 deg
M 213.5159788226905 4.0869e-05 deg
tp 2459456.732040271705
(2021-Aug-30.23204027)
0.00024455 TDB
period 2104.280944914154
5.76
2.9905e-05
8.188e-08
d
yr
n .17107981748829 2.4313e-09 deg/d
Q 3.425759287307457 3.2457e-08 au
  Orbit Determination Parameters
   # obs. used (total)      829  
   data-arc span      8861 days (24.26 yr)  
   first obs. used      1995-02-03  
   last obs. used      2019-05-09  
   planetary ephem.      DE431  
   SB-pert. ephem.      SB431-N16  
   condition code      0  
   norm. resid. RMS      .53277  
   source      ORB  
   producer      Otto Matic  
   solution date      2019-May-30 05:26:14  

Additional Information
 Earth MOID = 1.99692 au 
 Jupiter MOID = 1.88161 au 
 T_jup = 3.178 
[ show covariance matrix ]

Ephemeris | Orbit Diagram | Orbital Elements | Mission Design | Physical Parameters | Discovery Circumstances | Close-Approach Data ]

Physical Parameter Table
Parameter Symbol Value Units Sigma Reference Notes
absolute magnitude H 14.2   n/a MPO347951  

65322 (2002 KS)          Discovered 2002-May-16 by NEAT at Haleakala
Reference: 20030614/Numbers.arcLast Updated: 2004-04-19

[ show close-approach data ]
Alternate Designations
 2002 KS = 1999 XH222 
Ephemeris | Orbit Diagram | Orbital Elements | Mission Design | Physical Parameters | Discovery Circumstances | Close-Approach Data ]
ABOUT SSD CREDITS/AWARDS PRIVACY/COPYRIGHT GLOSSARY LINKS
FirstGov 2020-Jan-25 08:21 UT
(server date/time)  
NASA Home Page
Site Manager:   Ryan S. Park
Webmaster  Alan B. Chamberlin